Simultaneous Nadir Overpasses (SNOs) Predictions

Prediction of SNOs between AQUA and NOAA-19 Satellite Orbit:

Table of predicted SNOs for the next 14.0 days since TLE Epoch: 9/5/2014
Index Date (AQUA) Time (AQUA) Lat,Lon (AQUA) SZA (AQUA ) Date (NOAA-19) Time (NOAA-19) Lat,Lon (NOAA-19) SZA (NOAA-19 ) Distance(km) Time Diff (sec)
1 09/06/2014 21:18:39 -78.08, 21.44 107.57 09/06/2014 21:17:55 -78.09, 21.38 107.55 1.50 44
2 09/06/2014 22:07:56 77.62,-168.89 71.88 09/06/2014 22:08:47 77.63,-168.97 71.88 2.16 51
3 09/09/2014 02:03:51 -80.19, -63.14 103.77 09/09/2014 02:02:37 -79.95, -63.96 103.86 31.11 74
4 09/09/2014 02:52:17 77.77, 119.40 72.87 09/09/2014 02:52:37 77.77, 119.42 72.86 0.50 20
5 09/11/2014 07:36:40 78.02, 47.21 74.00 09/11/2014 07:36:30 78.02, 47.14 74.01 1.72 10
6 09/13/2014 12:21:01 78.19, -24.65 75.03 09/13/2014 12:20:21 78.20, -24.76 75.06 2.57 40
7 09/13/2014 13:10:16 -77.70, 145.19 105.56 09/13/2014 13:11:07 -77.71, 145.13 105.56 1.70 51
8 09/15/2014 17:05:21 78.32, -96.39 76.03 09/15/2014 17:04:11 78.33, -96.47 76.07 2.11 70
9 09/15/2014 17:54:36 -77.84, 73.52 104.56 09/15/2014 17:54:56 -77.83, 73.60 104.58 2.01 20




NCC Satellite Simultaneous Nadir Overpasses (SNOs) Prediction Service
